Regional Weather Roundup
Issued by NWS

Home | Current Version | Previous Version | Graphics & Text | Print | Product List | Glossary On
Versions: 1 2 3 4 5 6 7 8 9 10 11 12 13 14 15 16 17 18 19 20 21 22 23 24 25 26 27 28
000
ASUS45 KTFX 281310
RWRMT
MONTANA REGIONAL WEATHER ROUNDUP
NATIONAL WEATHER SERVICE GREAT FALLS MT
700 AM MDT FRI APR 28 2017

NOTE: "FAIR" INDICATES FEW OR NO CLOUDS BELOW 12000 FEET WITH NO
SIGNIFICANT WEATHER AND/OR OBSTRUCTIONS TO VISIBILITY.

MTZ001>007-043-281400-
WEST OF THE DIVIDE

CITY           SKY/WX    TMP DP  RH WIND       PRES   REMARKS
KALISPELL      CLOUDY    39  38  96 CALM      29.99R
MISSOULA       CLOUDY    38  34  85 CALM      30.02R
BUTTE          CLOUDY    27  21  78 NE3       29.95R
MULLAN PASS    FOG       27  27 100 VRB3      29.96R VSB 1/4
ANACONDA         N/A     25  19  80 CALM      29.98R
DEER LODGE       N/A     27  21  80 CALM      30.00R
EUREKA           N/A     39  36  87 CALM      29.99R
HAMILTON         N/A     36  27  69 S5        30.00R
LIBBY            N/A     36  34  93 CALM      30.00R
$$

MTZ008-052>055-281400-
SOUTHWEST MONTANA

CITY           SKY/WX    TMP DP  RH WIND       PRES   REMARKS
BOZEMAN        CLOUDY    36  29  75 W8        29.93R WCI  30
DILLON         CLOUDY    29  22  75 NW5       29.93R
W YELLOWSTONE  CLOUDY    23  23 100 CALM      29.83S
ENNIS          CLOUDY    30  27  86 N8        29.95  WCI  23
THREE FORKS      N/A     35  35 100 CALM      29.94R
$$

MTZ009-010-012-014-046-048-049-054-281400-
EAST SLOPES AND CENTRAL MONTANA

CITY           SKY/WX    TMP DP  RH WIND       PRES   REMARKS
CUT BANK       CLOUDY    35  34  96 NW6       29.95R WCI  30
GREAT FALLS    CLOUDY    36  33  89 SW3       29.95R
MALMSTROM AFB  CLOUDY    38  37  96 W3        29.96R
HELENA         CLOUDY    35  27  72 CALM      29.95R
AUGUSTA        CLOUDY    34  29  83 NW8       29.94R WCI  27
BOWMANS CRNR   CLOUDY    29  26  87 W6        29.93R WCI  23
CHOTEAU          N/A     36  32  87 CALM      29.97R
FAIRFIELD      CLOUDY    34  33  94 NW5       29.94R
POWER          CLOUDY    35  34  96 CALM      29.94R
RAYNESFORD     CLOUDY    35  34  99 CALM      29.95R
ULM            CLOUDY    37  34  92 CALM      29.95R
$$

MTZ011-013-016-021-045-047-050-051-281400-
NORTH CENTRAL MONTANA

CITY           SKY/WX    TMP DP  RH WIND       PRES   REMARKS
HAVRE          CLOUDY    32  32 100 CALM      29.96R FOG
LEWISTOWN      LGT SNOW  34  32  92 N7        29.93R FOG     WCI  28
N BAR RANCH    LGT SNOW  34  32  93 NW7       29.93R WCI  28
CHINOOK          N/A     34  34 100 CALM      29.97R
DENTON         MOCLDY    35  34  96 NW3       29.90R
FORT BENTON      N/A     37  36  93 N3        29.96R
GEYSER         CLOUDY    36  34  94 SW8       29.93R WCI  29
GRASS RANGE    LGT SNOW  33  32  97 NE10      29.90R WCI  25
JUDITH GAP     LGT RAIN  34  32  94 N23       29.88R WCI  22
STANFORD       CLOUDY    35  34  94 NW10      29.92R WCI  28
WINIFRED       CLOUDY    37  37  98 N5        29.93R
$$

MTZ017>020-022>027-061-062-281400-
NORTHEAST MONTANA

CITY           SKY/WX    TMP DP  RH WIND       PRES   REMARKS
GLASGOW        CLOUDY    40  18  41 SE9       29.94R
JORDAN           N/A     37  26  64 NE8       29.91R WCI  31
SIDNEY         SUNNY     35  24  64 E6        29.99R WCI  30
WOLF POINT     CLOUDY    33  20  58 E5        29.97R
PLENTYWOOD       N/A     34  25  69 CALM      29.99R
POPLAR           N/A     34  21  60 NE8       29.98R WCI  27
SCOBEY           N/A     31  17  56 CALM      29.96R
$$

MTZ028>42-056>058-281400-
SOUTHCENTRAL AND SOUTHEAST MONTANA

CITY           SKY/WX    TMP DP  RH WIND       PRES   REMARKS
BAKER          MOSUNNY   29  23  78 E5        29.92R
BILLINGS       CLOUDY    38  36  92 NE12      29.88R WCI  30
LIVINGSTON     CLOUDY    37  31  78 W8        29.89R WCI  31
MILES CITY     MOSUNNY   36  25  64 NE12      29.90R WCI  28
BIG TIMBER     PTCLDY    36  34  93 SW5       29.92R
EKALAKA          N/A     34  25  70 E6        29.87  WCI  29
LAUREL           N/A     38  32  79 N10       29.87S WCI  31
ROUNDUP          N/A     38  32  79 NW13      29.82R WCI  30
$$

REGIONAL REPORTS...DAKOTAS

CITY           SKY/WX    TMP DP  RH WIND       PRES   REMARKS
WILLISTON      SUNNY     33  26  75 NE5       29.99R
MINOT          SUNNY     31  26  82 CALM      29.98R
DICKINSON      CLOUDY    29  23  78 E6        29.93R WCI  23
BEACH            N/A     28  25  86 SE5       29.97R
TIOGA            N/A     27  27 100 CALM      29.99R
WATFORD CITY     N/A     28  23  80 CALM      29.98R
BISMARCK       SUNNY     32  28  85 CALM      29.98R
GRAND FORKS    SUNNY     36  29  75 NW8       29.94R WCI  30
FARGO          SUNNY     33  29  85 N9        29.93R WCI  25
BUFFALO SD       N/A     33  26  75 NE7       29.83R WCI  27
RAPID CITY     CLOUDY    35  30  82 N13       29.83R WCI  26
$$

REGIONAL REPORTS...WYOMING/IDAHO/WASHINGTON

CITY           SKY/WX    TMP DP  RH WIND       PRES   REMARKS
GILLETTE       HVY SNOW  32  32 100 N9        29.78R WCI  24
SHERIDAN       LGT SNOW  34  31  88 W17       29.84R FOG     WCI  23
BUFFALO WY     LGT SNOW  32  29  88 NW18      29.81R FOG     WCI  20
CODY           LGT SNOW  33  31  92 N21G28    29.80R FOG     WCI  21
YELLOWSTONE LA   N/A     23  19  85 VRB3      29.80R
IDAHO FALLS    CLOUDY    32  31  96 S6        29.88R WCI  26
SALMON         CLOUDY    28  25  86 CALM      29.99R
BOISE          CLEAR     35  31  85 NW6       30.02R WCI  30
SPOKANE        MOCLDY    37  32  82 S7        30.04R WCI  32
$$

REGIONAL REPORTS...ALBERTA

CITY           SKY/WX    TMP DP  RH WIND       PRES   REMARKS
EDMONTON       CLEAR     27  25  93 CALM      30.04R
CALGARY        MOCLDY    34  30  86 NW2       30.00R
LETHBRIDGE     CLOUDY    36  32  87 N6        30.00R WCI  31
MEDICINE HAT   CLOUDY    36  34  93 N3        29.99R
MILK RIVER       N/A     37  36  93 N13         N/A  WCI  29
ONEFOUR          N/A     36  36 100 CALM        N/A
$$

REGIONAL REPORTS...SASKATCHEWAN

CITY           SKY/WX    TMP DP  RH WIND       PRES   REMARKS
SWIFT CURRENT  CLEAR     32  32 100 W3        29.93R FOG
REGINA         PTSUNNY   30  23  74 SE7       29.98R WCI  23
SASKATOON      PTSUNNY   37  23  56 E7        29.97S
CYPRESS HILLS    N/A     34  27  75 W2          N/A
VAL MARIE        N/A     36  34  93 E2          N/A
ROCKGLEN         N/A     37  19  48 S7          N/A
ASSINIBOIA       N/A     32  32 100 N5          N/A
$$




USA.gov is the U.S. government's official web portal to all federal, state and local government web resources and services.